date,batt_volt,AirTemp_C,Solar_kW,RH,Manual_BP,StationID,WS_ms,PTemp,WS_15min_max,Prog_Sig,Solar_Raw,Bar_mbar,Solar_MJ,Max_WS_2min,Pressure_Raw,Rain_mm,WD_15min_ave,Max_AirTemp_1min,WindDir,WS_15min_med,WS_15min_ave,Elevation_Correction
2023-07-01T00:05:13Z,13.14218,17.83949,0.002892012,96.85066,0,1156,4.998,19.41578,6.076,43690,0.2024409,1021.259,1.446006e-05,4.959,1019.458,0,114.543262875,17.91,115.5523,4.5178,4.30819529353,1.80078
2023-07-01T00:20:09Z,13.14843,17.77546,0.0004820138,97.4326,0,1156,4.6648,19.23278,6.2132,43690,0.03374096,1021.259,2.410069e-06,4.939,1019.458,0,114.498881,17.98,105.6292,4.2336,3.9884260355,1.80078
2023-07-01T00:35:12Z,13.14901,17.74612,0.0,97.7789,0,1156,1.4896,19.10174,5.6448,43690,0.0,1021.259,0.0,5.037,1019.458,0,116.716360592,17.75,117.3242,4.0572,3.46620235294,1.80078
2023-07-01T00:50:14Z,13.1499,17.57812,0.0,98.15376,0,1156,4.2924,18.97297,5.5664,43690,0.0,1021.259,0.0,5.527,1019.458,0,114.463092751,17.71,116.9422,4.1944,3.78210823471,1.80078
2023-07-01T01:05:10Z,13.15591,17.61387,0.0,98.52954,0,1156,4.3316,18.84192,5.5664,43690,0.0,1022.415,0.0,5.527,1020.614,0,112.355277138,17.75,114.3248,4.606,4.40686863905,1.80078
2023-07-01T01:20:11Z,13.15649,17.51595,0.0,98.70524,0,1156,4.4688,18.76511,6.0956,43690,0.0,1022.415,0.0,4.978,1020.614,0,111.57518009,17.62,115.5105,4.5668,4.38198352941,1.80078
2023-07-01T01:35:12Z,13.15727,17.31557,0.0,98.91339,0,1156,3.9592,18.6883,5.5076,43690,0.0,1022.415,0.0,4.9,1020.614,0,112.240487126,17.35,103.5389,4.4982,4.31995529412,1.80078
2023-07-01T01:50:13Z,13.15765,17.35086,0.0,99.15296,0,1156,4.7236,18.60923,4.9196,43690,0.0,1022.415,0.0,4.508,1020.614,0,110.071986794,17.35,112.5368,3.9886,3.80424470529,1.80078
2023-07-01T02:05:14Z,13.15766,17.35093,0.0,99.35634,0,1156,3.5672,18.55952,5.2528,43690,0.0,1022.898,0.0,4.684,1021.097,0,109.740562362,17.42,97.72117,4.165,3.92368941176,1.80078
2023-07-01T02:20:15Z,13.15762,17.41856,0.0,99.59326,0,1156,3.8808,18.50756,4.4492,43690,0.0,1022.898,0.0,3.92,1021.097,0,108.7501716,17.49,116.3849,3.6456,3.16274823353,1.80078
2023-07-01T02:35:15Z,13.15766,17.45256,0.0,99.86446,0,1156,4.9,18.50756,5.0764,43690,0.0,1022.898,0.0,5.037,1021.097,0,107.366768021,17.55,109.5786,3.9592,3.69771294118,1.80078
2023-07-01T02:50:16Z,13.15766,17.2493,0.0,99.89834,0,1156,4.9784,18.50756,5.8408,43690,0.0,1022.898,0.0,5.625,1021.097,0,108.279694452,17.42,111.5748,4.7236,4.47502588059,1.80078
2023-07-01T03:05:16Z,13.15766,17.45256,0.0,100.0677,0,1156,4.998,18.50756,5.5272,43690,0.0,1021.841,0.0,5.135,1020.041,0,109.188137857,17.42,106.7164,4.4394,4.23705882294,1.80078
2023-07-01T03:20:16Z,13.16318,17.52031,0.0,100.1016,0,1156,3.3124,18.45559,5.7232,43690,0.0,1021.841,0.0,5.272,1020.041,0,110.557415082,17.59,99.7415,4.6648,4.45035294118,1.80078
2023-07-01T03:35:16Z,13.16318,17.35093,0.0,100.1355,0,1156,0.9408,18.45559,5.782,43690,0.0,1021.841,0.0,5.292,1020.041,0,107.037719191,17.59,101.2808,4.1748,3.93913882353,1.80078
2023-07-01T03:50:16Z,13.16318,17.58806,0.0,100.1016,0,1156,4.0964,18.48045,5.0764,43690,0.0,1021.841,0.0,3.94,1020.041,0,106.719544162,17.69,110.6609,3.9494,3.45686352882,1.80078
2023-07-01T04:05:17Z,13.15214,17.75743,0.0,100.1016,0,1156,4.312,18.50756,4.8216,43690,0.0,1022.41,0.0,4.038,1020.61,0,108.70978817,17.69,106.981,3.7142,3.47185176471,1.80078
2023-07-01T04:20:16Z,13.15766,17.99456,0.0,100.1355,0,1156,3.92,18.55952,5.8408,43690,0.0,1022.41,0.0,5.547,1020.61,0,110.925204536,18.1,117.4434,4.606,4.50696235294,1.80078
2023-07-01T04:35:15Z,13.15763,17.48643,0.0,100.1693,0,1156,4.5472,18.63633,6.468,43690,0.0,1022.41,0.0,4.645,1020.61,0,109.467008833,17.69,108.2798,4.5962,4.45404235294,1.80078
2023-07-01T04:50:19Z,13.15722,17.11365,0.0,100.1013,0,1156,2.9008,18.60923,4.998,43690,0.0,1022.41,0.0,4.351,1020.61,0,109.809579212,17.32,110.853,3.4888,2.87970994094,1.80078
2023-07-01T05:05:17Z,13.15765,16.7411,0.0,100.1015,0,1156,3.8612,18.50756,4.8412,43690,0.0,1022.327,0.0,4.645,1020.526,0,107.286650851,16.84,107.8948,4.0866,3.74613647059,1.80078
2023-07-01T05:20:16Z,13.16318,16.63955,0.0,100.1016,0,1156,4.2336,18.27711,5.1352,43690,0.0,1022.327,0.0,4.606,1020.526,0,105.655825078,16.74,102.6758,3.9298,3.43680235294,1.80078
2023-07-01T05:35:20Z,13.16869,16.60567,0.0,100.1016,0,1156,4.508,18.09637,5.1744,43690,0.0,1022.327,0.0,5.174,1020.526,0,104.516135046,16.71,108.9292,4.0768,3.67666198772,1.80078
2023-07-01T05:50:18Z,13.17421,16.74117,0.0,100.1016,0,1156,3.92,17.96985,5.0764,43690,0.0,1022.327,0.0,5.076,1020.526,0,104.95503112,16.74,99.18831,4.0278,3.78026352882,1.80078
2023-07-01T06:05:16Z,13.17421,16.87667,0.0,100.1355,0,1156,2.058,17.9179,5.4292,43690,0.0,1021.597,0.0,4.194,1019.797,0,106.13760773,16.94,106.4278,4.0376,3.68814352941,1.80078
2023-07-01T06:20:20Z,13.16869,17.04605,0.0,100.1016,0,1156,3.43,17.945,4.8412,43690,0.0,1021.597,0.0,4.841,1019.797,0,107.446628301,17.22,107.3658,3.6652,3.05588070175,1.80078
2023-07-01T06:35:19Z,13.16869,17.52031,0.0,100.1355,0,1156,3.7632,18.04667,4.9392,43690,0.0,1021.597,0.0,4.939,1019.797,0,107.416849519,17.49,108.4962,3.2928,2.61464,1.80078
2023-07-01T06:50:18Z,13.16869,16.91055,0.0,100.1355,0,1156,0.0392,18.12349,5.39,43690,0.0,1021.597,0.0,4.586,1019.797,0,110.763532922,17.01,114.1483,3.7436,3.29233882294,1.80078
2023-07-01T07:05:17Z,13.16318,17.01218,0.0,100.1016,0,1156,1.0976,18.09637,4.998,43690,0.0,1021.11,0.0,3.724,1019.309,0,110.233089541,17.22,106.4519,3.234,2.60403294059,1.80078
2023-07-01T07:20:17Z,13.16869,16.67342,0.0,100.1016,0,1156,4.2728,18.01956,5.096,43690,0.0,1021.11,0.0,4.253,1019.309,0,110.431184457,16.74,109.8912,3.871,3.50194352941,1.80078
2023-07-01T07:35:22Z,13.17973,16.26692,0.0,100.1016,0,1156,3.626,17.84333,5.0568,43690,0.0,1021.11,0.0,4.704,1019.309,0,106.021158972,16.4,105.8506,4.312,4.1619625731,1.80078
2023-07-01T07:50:20Z,13.17973,16.80893,0.0,100.1355,0,1156,1.5092,17.71682,4.1748,43690,0.0,1021.11,0.0,3.646,1019.309,0,104.009852352,16.81,102.1466,3.185,2.66536941059,1.80078
2023-07-01T08:05:19Z,13.17421,17.1138,0.0,100.1355,0,1156,2.1168,17.76652,4.4296,43690,0.0,1021.11,0.0,4.136,1019.309,0,103.430930435,17.11,101.3289,3.43,2.85076235118,1.80078
2023-07-01T08:20:18Z,13.17421,16.74117,0.000482014,100.1355,0,1156,2.2148,17.81623,4.116,43690,0.03374098,1021.11,2.41007e-06,3.802,1019.309,0,101.715775901,16.81,101.8099,1.1368,1.49236705765,1.80078
2023-07-01T08:35:23Z,13.17421,17.04605,0.0009640279,100.1016,0,1156,0.0392,17.81623,4.0964,43690,0.06748196,1021.11,4.82014e-06,3.861,1019.309,0,107.643564003,17.08,109.9874,1.8816,1.72491461696,1.80078
2023-07-01T08:50:22Z,13.16869,17.21543,0.00241007,100.1016,0,1156,3.8808,17.86819,4.7432,43690,0.1687049,1021.11,1.205035e-05,4.743,1019.309,0,104.910840745,17.32,107.8709,3.9494,3.73022588235,1.80078
2023-07-01T09:05:21Z,13.16869,17.18155,0.008676251,100.1355,0,1156,3.332,17.96985,4.4296,43690,0.6073376,1021.516,4.338126e-05,4.096,1019.715,0,101.354219595,17.25,96.25403,3.6848,3.43680235294,1.80078
2023-07-01T09:20:20Z,13.16869,16.80893,0.01012229,100.0677,0,1156,4.0768,18.01956,4.4688,43690,0.7085606,1021.516,5.061146e-05,4.312,1019.715,0,100.244886089,16.91,100.9441,3.7632,3.50032941059,1.80078
2023-07-01T09:35:24Z,13.16869,16.80893,0.01638848,100.1355,0,1156,2.1952,17.945,4.2728,43690,1.147193,1021.516,8.194238e-05,3.528,1019.715,0,100.806465168,16.81,96.78317,3.234,2.74044678187,1.80078
2023-07-01T09:50:23Z,13.17421,16.94443,0.02699278,100.1016,0,1156,2.1364,17.9179,4.1552,43690,1.889495,1021.516,0.0001349639,3.861,1019.715,0,105.250108095,17.08,106.1873,3.43,3.07120470588,1.80078
2023-07-01T10:05:23Z,13.16869,16.77505,0.034705,100.1016,0,1156,3.9396,17.96985,4.2728,43690,2.42935,1021.923,0.000173525,3.861,1020.122,0,105.867913085,16.91,103.0125,3.2144,2.54661647,1.80078
2023-07-01T10:20:23Z,13.16869,16.9783,0.07037404,100.1355,0,1156,2.7636,18.04667,3.8808,43690,4.926183,1021.923,0.0003518702,3.881,1020.122,0,104.126496104,16.91,106.3797,2.7832,2.26195529235,1.80078
2023-07-01T10:35:23Z,13.16318,17.07993,0.1060431,100.1355,0,1156,1.4504,18.2003,3.7632,43690,7.423015,1021.923,0.0005302154,3.685,1020.122,0,103.159750089,17.15,102.796,1.9796,1.85623529118,1.80078
2023-07-01T10:50:23Z,13.16318,17.18155,0.06844598,100.0677,0,1156,3.0184,18.35393,3.9788,43690,4.791219,1021.923,0.0003422299,3.783,1020.122,0,101.76055268,17.38,110.2761,3.038,2.40895529294,1.80078
2023-07-01T11:05:23Z,13.15766,17.58806,0.1426761,100.1355,0,1156,0.0392,18.55952,3.9984,43690,9.98733,1022.248,0.0007133806,3.469,1020.447,0,101.03138771,17.52,95.89326,2.2344,1.86096235118,1.80078
2023-07-01T11:20:22Z,13.14583,17.68494,0.1089352,100.0934,0,1156,1.0976,18.94585,4.5864,43690,7.625461,1022.248,0.0005446758,4.488,1020.447,0,102.809664628,17.72,96.02966,3.4888,2.55226588235,1.80078
2023-07-01T11:35:21Z,13.14445,17.30703,0.09351071,100.118,0,1156,4.2532,19.15371,4.9196,43690,6.54575,1022.248,0.0004675535,4.92,1020.447,0,104.464907399,17.48,110.5934,3.4594,2.97285882176,1.80078
2023-07-01T11:50:22Z,13.14362,17.26945,0.206302,100.0776,0,1156,3.9004,19.23278,5.0568,43690,14.44114,1022.248,0.00103151,4.449,1020.447,0,105.009588973,17.3,99.78972,3.8612,3.51796941118,1.80078
2023-07-01T12:05:22Z,13.13685,17.80847,0.13882,100.1065,0,1156,1.1564,19.46774,4.5472,43690,9.717402,1021.627,0.0006941001,3.685,1019.826,0,105.302169346,17.71,97.62078,3.3908,2.82747294,1.80078
2023-07-01T12:20:27Z,13.12564,17.73798,0.188456,100.1018,0,1156,3.7436,19.86311,4.4884,43690,13.19192,1021.627,0.00094228,4.351,1019.826,0,106.144155046,17.87,113.0039,3.7828,3.35584093567,1.80078
2023-07-01T12:35:26Z,13.12013,18.92316,0.3445779,100.0678,0,1156,2.8812,20.34207,4.6844,43690,24.12045,1021.627,0.001722889,4.332,1019.826,0,105.454950513,18.58,107.1853,3.5378,2.72601411647,1.80078
2023-07-01T12:50:26Z,13.09255,18.82156,0.3970784,100.1016,0,1156,0.0392,21.58692,5.096,43690,27.79548,1021.627,0.001985392,3.685,1019.826,0,106.078142604,18.96,106.464,2.8224,2.44757882294,1.80078
2023-07-01T13:05:26Z,13.06098,20.19154,0.5550942,100.1387,0,1156,2.2148,23.01024,4.6648,43690,38.8566,1021.216,0.002775471,4.665,1019.416,0,110.191526981,20.26,116.9832,0.2156,1.11973646941,1.80078
2023-07-01T13:20:25Z,13.03299,20.35889,0.3800834,100.1017,0,1156,0.0392,24.62786,4.508,43690,26.60584,1021.216,0.001900417,4.253,1019.416,0,112.520591738,20.33,120.1281,3.2536,2.43074588176,1.80078
2023-07-01T13:35:25Z,13.03092,19.87442,0.7023039,100.084,0,1156,1.0584,25.16331,4.7432,43690,49.16127,1021.216,0.00351152,4.508,1019.416,0,111.715508853,19.94,114.6999,0.7644,1.69205647,1.80078
2023-07-01T13:50:24Z,13.02897,20.10454,0.906539,96.4177,0,1156,0.0392,25.4909,4.9588,43690,63.45772,1021.216,0.004532695,4.802,1019.416,0,112.482274818,20.24,95.82477,3.381,2.55860705706,1.80078
2023-07-01T14:05:24Z,13.01756,21.59064,0.4614582,87.88512,0,1156,4.1552,26.13027,5.0176,43690,32.30207,1021.724,0.002307291,3.332,1019.923,0,114.931294119,21.79,110.3085,2.5088,2.20073411588,1.80078
2023-07-01T14:20:24Z,13.01755,21.11678,0.8717257,89.71238,0,1156,0.0392,26.3449,4.5276,43690,61.0208,1021.724,0.004358628,4.234,1019.923,0,110.428898829,21.08,111.2934,1.225,1.73125646706,1.80078
2023-07-01T14:35:25Z,13.01204,22.03048,0.878453,84.6024,0,1156,4.3512,26.68379,5.2332,43690,61.49172,1021.724,0.004392265,5.174,1019.923,0,115.788545139,22.27,108.9388,3.3516,2.54123742632,1.80078
2023-07-01T14:50:25Z,13.00653,21.52287,0.385768,87.03895,0,1156,0.9799999,26.99556,5.3312,43690,27.00376,1021.724,0.00192884,4.312,1019.923,0,114.364658188,21.76,116.195,3.822,3.25648235235,1.80078
2023-07-01T15:05:25Z,13.00643,22.09672,0.9242057,84.60044,0,1156,3.3908,26.90068,4.7432,43690,64.6944,1020.898,0.004621028,4.743,1019.097,0,113.329450634,22.27,120.6852,1.4406,1.83986352824,1.80078
2023-07-01T15:20:25Z,12.99914,22.6008,0.7590038,83.30983,0,1156,0.49,27.18308,4.7628,43690,53.13026,1020.898,0.003795019,3.92,1019.097,0,112.869841252,22.7,102.8518,0.9212,1.49974588176,1.80078
2023-07-01T15:35:25Z,12.99155,22.04578,1.14172,84.64479,0,1156,4.0376,27.43612,4.41,43690,79.92042,1020.898,0.005708602,4.077,1019.097,0,112.738654648,22.01,113.47,1.176,1.71453882353,1.80078
2023-07-01T15:50:25Z,12.99129,21.63963,0.3914813,84.50922,0,1156,0.0392,27.56263,4.4492,43690,27.40369,1020.898,0.001957407,4.292,1019.097,0,113.072248122,22.08,96.29551,2.2148,2.08451764647,1.80078
2023-07-01T16:05:26Z,12.99765,21.67232,0.4372524,85.4549,0,1156,0.1764,27.27797,4.312,43690,30.60766,1021.061,0.002186262,3.802,1019.26,0,110.622559576,21.74,111.2818,1.4406,1.73483058647,1.80078
2023-07-01T16:20:27Z,13.00951,21.23893,0.2157476,87.08786,0,1156,2.7048,26.74479,4.41,43690,15.10233,1021.061,0.001078738,4.018,1019.26,0,111.946033547,21.44,116.218,2.0482,1.94823999941,1.80078
2023-07-01T16:35:27Z,13.03951,20.40564,0.3853227,94.2125,0,1156,3.626,25.25142,5.4488,43690,26.97259,1021.061,0.001926613,4.43,1019.26,0,106.055253997,20.47,110.74,3.822,3.32277647059,1.80078
2023-07-01T16:50:28Z,13.05808,19.46423,0.5997016,95.57598,0,1156,0.0392,24.01335,5.1156,43690,41.97911,1021.061,0.002998508,2.078,1019.26,0,106.364014929,19.5,95.78106,3.4594,2.67735999824,1.80078
2023-07-01T17:05:28Z,13.06046,20.12144,0.2562585,94.48138,0,1156,1.862,23.63832,4.1356,43690,17.9381,1020.257,0.001281293,3.842,1018.456,0,106.595496188,20.09,97.55821,1.6856,1.76734352588,1.80078
2023-07-01T17:20:29Z,13.06606,20.02029,0.4094438,94.85441,0,1156,1.8032,23.35139,4.0768,43690,28.66106,1020.257,0.002047219,3.822,1018.456,0,108.135126059,20.32,107.7979,1.8816,1.78313882176,1.80078
2023-07-01T17:35:29Z,13.06606,19.98644,0.05876768,95.05753,0,1156,0.0392,23.15258,3.5084,43690,4.113738,1020.257,0.0002938384,0.039,1018.456,0,106.357833439,20.09,107.4614,0.0392,0.309218823529,1.80078
2023-07-01T17:50:30Z,13.0826,20.29114,0.1763578,95.80232,0,1156,0.0392,22.8408,0.0392,43690,12.34505,0.0,0.0008817892,0.039,0.0,0,105.286217093,20.32,107.5576,0.0392,0.0380333333333,0.0
2023-07-01T18:05:30Z,13.0826,20.05418,0.09059671,95.59921,0,1156,0.0392,22.64425,0.0392,43690,6.34177,1020.474,0.0004529835,0.039,1018.673,0,125.981065161,20.16,142.4327,0.0392,0.0392,1.80078
2023-07-01T18:20:30Z,13.08811,20.25729,0.1171015,95.87002,0,1156,0.0392,22.44769,0.0392,43690,8.197107,1020.474,0.0005855076,0.039,1018.673,0,193.530969247,20.43,178.6537,0.0392,0.0390847058824,1.80078
2023-07-01T18:35:29Z,13.09363,19.34327,0.1185472,95.90388,0,1156,0.0196,22.22403,0.0392,43690,8.298306,1020.474,0.0005927361,0.039,1018.673,0,191.431674833,19.48,85.58938,0.0392,0.0381623529412,1.80078
2023-07-01T18:50:29Z,13.09914,20.49426,0.1305947,96.8856,0,1156,0.0392,21.88965,0.0392,43690,9.14163,1020.474,0.0006529735,0.039,1018.673,0,81.2520058921,20.7,214.6825,0.0196,0.0282470588235,1.80078
2023-07-01T19:05:29Z,13.09914,19.58024,0.114692,96.1747,0,1156,0.0392,21.86255,0.0392,43690,8.028442,1020.068,0.0005734602,0.039,1018.267,0,191.734875666,19.75,205.8856,0.0392,0.0387388235294,1.80078
2023-07-01T19:20:30Z,13.10465,19.41098,0.1397508,96.58093,0,1156,0.0392,21.67051,0.0392,43690,9.782555,1020.068,0.000698754,0.039,1018.267,0,198.617264318,19.41,198.4347,0.0392,0.0388541176471,1.80078
2023-07-01T19:35:29Z,13.10671,19.9941,0.07999528,97.16878,0,1156,0.8624,21.61628,0.0392,43690,5.59967,1020.068,0.0003999764,0.039,1018.267,0,203.395452756,20.2,211.08,0.0392,0.0389680473373,1.80078
2023-07-01T19:50:30Z,13.10648,20.30048,0.1373413,97.7809,0,1156,0.6664,21.58692,1.2936,43690,9.61389,1020.068,0.0006867064,0.666,1018.267,0,198.291945357,20.5,190.3163,0.0392,0.0601835294118,1.80078
2023-07-01T20:05:31Z,13.10097,19.04468,0.1305947,97.53882,0,1156,0.0392,21.67051,2.94,43690,9.14163,1019.593,0.0006529735,0.039,1017.792,0,179.660790979,19.15,190.4505,0.0392,0.464174117647,1.80078
2023-07-01T20:20:30Z,13.10153,18.63926,0.04288904,97.67568,0,1156,0.0392,21.5598,0.0392,43690,3.002233,1019.593,0.0002144452,0.039,1017.792,0,175.165122433,18.77,162.6173,0.0392,0.0389694117647,1.80078
2023-07-01T20:35:31Z,13.11435,19.02277,0.09204277,98.40515,0,1156,0.0392,21.17799,0.0392,43690,6.442994,1019.593,0.0004602138,0.039,1017.792,0,192.591015834,19.02,114.0098,0.0392,0.0378164705882,1.80078
2023-07-01T20:50:31Z,13.1146,19.60036,0.07036524,98.78083,0,1156,0.0392,20.9611,0.0392,43690,4.925567,1019.593,0.0003518262,0.039,1017.792,0,99.7549722773,19.67,208.648,0.0392,0.0319364705882,1.80078
2023-07-01T21:05:31Z,13.10909,20.0745,0.1233832,99.01795,0,1156,0.0392,21.01532,0.0392,43690,8.636826,1019.349,0.0006169162,0.039,1017.548,0,160.023790323,20.18,54.69861,0.0392,0.0360870588235,1.80078
2023-07-01T21:20:32Z,13.10909,20.78564,0.08578554,99.255,0,1156,0.0392,21.28643,0.0392,43690,6.004988,1019.349,0.0004289277,0.039,1017.548,0,218.444124163,20.79,185.7108,0.0392,0.0370094117647,1.80078
2023-07-01T21:35:32Z,13.10262,20.81813,0.07421269,99.15116,0,1156,0.0392,21.50558,0.0392,43690,5.194888,1019.349,0.0003710634,0.039,1017.548,0,193.451831324,20.92,230.9792,0.0392,0.0338964705882,1.80078
2023-07-01T21:50:32Z,13.09547,20.02435,0.06891162,98.65254,0,1156,0.0392,21.69762,0.0392,43690,4.823814,1019.349,0.0003445581,0.039,1017.548,0,150.592137568,20.16,148.7399,0.0392,0.0370094117647,1.80078
2023-07-01T22:05:33Z,13.09971,19.14205,0.01975788,98.8522,0,1156,0.0392,21.58692,1.3328,43690,1.383052,1020.165,9.87894e-05,0.039,1018.364,0,149.614520014,19.18,152.7727,0.0392,0.0552258817647,1.80078
2023-07-01T22:20:33Z,13.11409,19.25879,0.01590269,99.14842,0,1156,0.0392,21.17799,0.0392,43690,1.113188,1020.165,7.951342e-05,0.039,1018.364,0,177.95731573,19.36,180.6045,0.0392,0.0392,1.80078
2023-07-01T22:35:34Z,13.12011,19.43101,0.02120577,99.45806,0,1156,0.0392,20.85266,0.0392,43690,1.484404,1020.165,0.0001060288,0.039,1018.364,0,173.326579504,19.53,180.8057,0.0392,0.0380470588235,1.80078
2023-07-01T22:50:35Z,13.12564,19.87132,0.08338231,99.76295,0,1156,0.0392,20.63803,0.0392,43690,5.836762,1020.165,0.0004169116,0.039,1018.364,0,91.4614885868,20.01,189.3173,0.0392,0.0327435294118,1.80078
2023-07-01T23:05:37Z,13.11461,20.88724,0.172549,100.0,0,1156,0.0392,20.79844,0.0392,43690,12.07843,1019.999,0.0008627452,0.039,1018.199,0,186.870859796,20.82,175.6847,0.0392,0.0315905882353,1.80078
2023-07-01T23:20:35Z,13.10909,20.31155,0.1556692,99.28886,0,1156,0.0392,21.23221,0.2156,43690,10.89684,1019.999,0.0007783458,0.216,1018.199,0,117.499473406,20.51,108.6038,0.0392,0.035024852071,1.80078
2023-07-01T23:35:38Z,13.10909,19.87132,0.06939441,98.98409,0,1156,0.0392,21.39714,3.2144,43690,4.857609,1019.999,0.000346972,3.214,1018.199,0,105.163649219,19.94,105.5022,0.0392,0.172479999412,1.80078
2023-07-01T23:50:36Z,13.11461,19.53224,0.03855196,99.28813,0,1156,2.8812,21.2051,3.626,43690,2.698637,1019.999,0.0001927598,3.391,1018.199,0,106.065719837,19.6,104.9484,0.1568,0.86761893432,1.80078
2023-07-02T00:05:33Z,13.12564,19.05859,0.01494016,99.45818,0,1156,0.1176,20.85266,3.822,43690,1.045811,1019.593,7.470082e-05,3.587,1017.792,0,104.950236355,19.09,103.2181,1.666,1.68130887574,1.80078
2023-07-02T00:20:38Z,13.13667,18.58449,0.0009639291,99.59363,0,1156,2.8028,20.44825,4.2336,43690,0.06747504,1019.593,4.819646e-06,4.234,1017.792,0,104.924869289,18.72,111.5371,1.1662,1.59797646941,1.80078
2023-07-02T00:35:37Z,13.13667,17.97494,0.0,99.76295,0,1156,3.3124,19.9964,4.3904,43690,0.0,1019.593,0.0,4.39,1017.792,0,106.041052484,18.14,112.7393,3.7828,3.53994556154,1.80078
2023-07-02T00:50:38Z,13.1477,17.90722,0.0,99.93227,0,1156,4.1748,19.57393,4.508,43690,0.0,1019.593,0.0,4.332,1017.792,0,107.002868789,18.04,110.4551,3.5672,2.96006117647,1.80078
2023-07-02T01:05:38Z,13.15384,17.57233,0.0,99.87106,0,1156,3.234,19.20793,4.5472,43690,0.0,1019.36,0.0,4.43,1017.559,0,106.379231465,17.57,104.2828,2.891,2.30876470471,1.80078
2023-07-02T01:20:39Z,13.16133,17.00285,0.0,99.882,0,1156,2.9596,18.86904,4.6256,43690,0.0,1019.36,0.0,4.626,1017.559,0,103.031523669,17.14,105.6168,3.7828,3.38860941059,1.80078
2023-07-02T01:35:36Z,13.16841,16.87577,0.0,99.9645,0,1156,3.8612,18.53241,4.312,43690,0.0,1019.36,0.0,4.312,1017.559,0,106.997617317,16.91,105.0793,3.5476,3.04577041361,1.80078
2023-07-02T01:50:39Z,13.17421,16.91055,0.0,100.1355,0,1156,2.2736,18.2003,4.7824,43690,0.0,1019.36,0.0,2.097,1017.559,0,107.036619795,17.05,113.4508,3.1752,2.44700235294,1.80078
2023-07-02T02:05:40Z,13.17421,17.1138,0.0,100.1355,0,1156,0.0588,18.09637,3.4888,43690,0.0,1019.443,0.0,1.254,1017.642,0,103.617539263,17.25,100.3187,0.0686,0.665247057059,1.80078
2023-07-02T02:20:41Z,13.17421,16.77505,0.0,100.1355,0,1156,0.0392,18.07152,3.8808,43690,0.0,1019.443,0.0,3.665,1017.642,0,105.14384999,16.91,104.1189,0.6076,1.32703529412,1.80078
2023-07-02T02:35:41Z,13.17973,16.53792,0.0,100.1016,0,1156,3.724,17.99471,4.3316,43690,0.0,1019.443,0.0,4.332,1017.642,0,106.834030008,16.64,107.4861,3.4006,2.81698117647,1.80078
2023-07-02T02:50:40Z,13.17973,16.67342,0.0,100.1355,0,1156,3.724,17.84333,4.41,43690,0.0,1019.443,0.0,3.959,1017.642,0,107.4099934,16.71,107.0291,3.5574,3.12850588176,1.80078
2023-07-02T03:05:40Z,13.18525,16.67342,0.0,100.1355,0,1156,3.1164,17.74167,4.0572,43690,0.0,1019.28,0.0,2.764,1017.48,0,105.242061602,16.74,109.6267,2.1364,1.97245176235,1.80078
2023-07-02T03:20:40Z,13.17421,16.8428,0.0,100.1016,0,1156,0.0392,17.74167,3.43,43690,0.0,1019.28,0.0,0.51,1017.48,0,106.875307121,16.94,108.6886,0.49,1.10924470471,1.80078
2023-07-02T03:35:39Z,13.17421,17.1138,0.0,100.1355,0,1156,0.0392,17.84333,0.196,43690,0.0,1019.28,0.0,0.059,1017.48,0,107.193078384,17.15,104.9847,0.0392,0.0415058823529,1.80078
2023-07-02T03:50:39Z,13.17421,17.01218,0.0,100.1016,0,1156,0.0392,17.945,0.0392,43690,0.0,1019.28,0.0,0.039,1017.48,0,103.353309735,17.15,107.6063,0.0392,0.0392,1.80078
2023-07-02T04:05:39Z,13.17421,17.14768,0.0,100.1355,0,1156,0.0392,17.99471,0.1764,43690,0.0,1018.955,0.0,0.039,1017.154,0,107.084674964,17.22,108.7127,0.0392,0.0400070588235,1.80078
2023-07-02T04:20:39Z,13.17421,17.1138,0.0,100.1355,0,1156,0.0392,18.07152,2.9792,43690,0.0,1018.955,0.0,0.039,1017.154,0,105.66602423,17.18,105.2733,0.0392,0.283508234118,1.80078
2023-07-02T04:35:40Z,13.17421,17.1138,0.0,100.1693,0,1156,0.0392,18.09637,0.0392,43690,0.0,1018.955,0.0,0.039,1017.154,0,105.053023046,17.08,109.7469,0.0392,0.0392,1.80078
2023-07-02T04:50:40Z,13.16869,17.2493,0.0,100.1355,0,1156,0.0392,18.12349,0.0392,43690,0.0,1018.955,0.0,0.039,1017.154,0,107.606214823,17.32,109.9393,0.0392,0.0392,1.80078
2023-07-02T05:05:39Z,13.16869,17.1138,0.0,100.1016,0,1156,3.3712,18.14833,3.2536,43690,0.0,1018.711,0.0,3.254,1016.91,0,108.127035364,17.32,108.5443,0.0392,0.247536469412,1.80078
2023-07-02T05:20:40Z,13.16869,17.1138,0.0,100.1355,0,1156,3.4496,18.14833,3.7632,43690,0.0,1018.711,0.0,3.489,1016.91,0,107.531878588,17.22,107.9431,1.7346,1.73506117471,1.80078
2023-07-02T05:35:45Z,13.16869,17.18155,0.0,100.1355,0,1156,3.6456,18.14833,3.6456,43690,0.0,1018.711,0.0,2.156,1016.91,0,109.631533519,17.25,107.8469,0.0392,0.495387133918,1.80078
2023-07-02T05:50:43Z,13.17421,17.14768,0.0,100.1016,0,1156,0.0392,18.12349,3.43,43690,0.0,1018.711,0.0,1.94,1016.91,0,106.204592433,17.18,96.10972,0.0392,0.448955292941,1.80078
2023-07-02T06:05:42Z,13.17421,17.31705,0.0,100.1355,0,1156,1.176,18.09637,3.038,43690,0.0,1018.549,0.0,0.039,1016.748,0,106.345669547,17.32,105.8746,0.0392,0.137661176471,1.80078
2023-07-02T06:20:46Z,13.17421,17.28318,0.0,100.1355,0,1156,0.0392,18.12349,4.508,43690,0.0,1018.549,0.0,3.606,1016.748,0,104.937835339,17.38,110.9014,2.352,2.05135204678,1.80078
2023-07-02T06:35:44Z,13.17421,16.9783,0.0,100.1355,0,1156,0.0392,18.09637,3.5084,43690,0.0,1018.549,0.0,3.508,1016.748,0,106.055483139,17.01,105.8987,0.90159995,1.26189411588,1.80078
2023-07-02T06:50:43Z,13.17421,17.28318,0.0,100.1016,0,1156,0.2548,18.07152,3.5868,43690,0.0,1018.549,0.0,3.567,1016.748,0,106.414759168,17.32,102.2669,1.3818,1.55266587882,1.80078
2023-07-02T07:05:41Z,13.17421,16.74117,0.0,100.1016,0,1156,4.1552,18.07152,5.2332,43690,0.0,1018.549,0.0,4.802,1016.748,0,107.507224362,16.91,104.8885,3.7338,3.01782352824,1.80078